Skip Page Navigation
NASA JPL Caltech
NASA Logo - Jet Propulsion Laboratory + View the NASA Portal
+ Center for Near-Earth Object Studies
JPL Home Earth Solar System Stars & Galaxies Technology
JPL Solar System Dynamics
BODIES ORBITS EPHEMERIDES TOOLS PHYSICAL DATA DISCOVERY FAQ SITE MAP
JPL Small-Body Database Browser
Search: [ help ]  
(2015 KG)
Classification: Amor [NEO]          SPK-ID: 3719240
Ephemeris | Orbit Diagram | Orbital Elements | Mission Design | Physical Parameters | Close-Approach Data ]

[ hide orbit diagram ]

For accurate long-term ephemerides, please instead use our Horizons system.This orbit viewer was implemented using two-body methods, and hence should not be used for determining accurate long-term trajectories (over several years or decades) or planetary encounter circumstances.


[ revert to old Java-based viewer ]

Orbital Elements at Epoch 2459000.5 (2020-May-31.0) TDB
Reference: JPL 6 (heliocentric ecliptic J2000)
 Element Value Uncertainty (1-sigma)   Units 
e .4086234979839486 0.00047577  
a 1.76608593446463 0.0014864 au
q 1.044421722183442 3.8787e-05 au
i .56946516772974 0.00051973 deg
node 207.0876587069498 0.0043177 deg
peri 22.17285860221061 0.0062828 deg
M 55.24275365586058 0.97627 deg
tp 2458868.950563478017
(2020-Jan-20.45056348)
2.1587 TDB
period 857.2671348523508
2.35
1.0823
0.002963
d
yr
n .4199391127504307 0.00053015 deg/d
Q 2.487750146745817 0.0020938 au
  Orbit Determination Parameters
   # obs. used (total)      42  
   data-arc span      6 days  
   first obs. used      2015-05-18  
   last obs. used      2015-05-24  
   planetary ephem.      DE431  
   SB-pert. ephem.      SB431-N16  
   condition code      7  
   norm. resid. RMS      .53645  
   source      ORB  
   producer      Otto Matic  
   solution date      2017-Apr-06 08:33:43  

Additional Information
 Earth MOID = .034544 au 
 Jupiter MOID = 2.5065 au 
 T_jup = 4.010 
[ show covariance matrix ]

Ephemeris | Orbit Diagram | Orbital Elements | Mission Design | Physical Parameters | Close-Approach Data ]

Physical Parameter Table
Parameter Symbol Value Units Sigma Reference Notes
absolute magnitude H 26.9   n/a MPO349339  

[ show close-approach data ]
Ephemeris | Orbit Diagram | Orbital Elements | Mission Design | Physical Parameters | Close-Approach Data ]
ABOUT SSD CREDITS/AWARDS PRIVACY/COPYRIGHT GLOSSARY LINKS
FirstGov 2020-Oct-22 12:16 UT
(server date/time)  
NASA Home Page
Site Manager:   Ryan S. Park
Webmaster  Alan B. Chamberlin